Find STARLINK-37859

NORAD ID: 799500983 Int'l Des: 2026-135H Constellation: starlink operational

現在のビュー

3D地球を読み込み中...

About STARLINK-37859

STARLINK-37859 (NORAD 799500983) is a starlink constellation satellite launched Jun 8, 2026

STARLINK-37859について

説明を読み込み中...

次回通過

Passes for default location (London). Set your location on the main map for personalized predictions.

高度履歴

Loading altitude history...

軌道要素

1 99999C 2026135H 26167.10118056 .00338880 00000-0 526880-4 0 1678
2 99999 97.2795 193.9090 0010623 265.1689 310.5087 16.03832522 13
Epoch: Jun 16, 2026 • Age: 5 hours